Home   Weather   Nashville   Past weeks

Flag for USA Past Weather in Nashville, Tennessee, USA — Yesterday and Last 2 Weeks

Now
63 °F

Partly sunny.


Feels Like: 63 °F
Forecast: 51 / 66 °F
Wind: 7 mph from North

Location: Nashville International Airport

Current Time: Sep 29, 2016 at 12:00:02 PM

Latest Report: Sep 29, 2016 at 10:53 AM


Visibility: 10 mi

Pressure: 30.09 "Hg

Humidity: 63%

Dew Point: 50 °F

Location of NashvilleLocation

Past Weather in Nashville — Graph

°F

Nashville Temperature Yesterday

Maximum temperature yesterday: 83 °F (at 1:53 PM)
Minimum temperature yesterday: 50 °F (at 5:53 AM)
Average temperature yesterday: 65 °F

High & Low Weather Summary for the Past Weeks

 TemperatureHumidityPressure
High93 °F (Sep 15, 3:53 PM)97% (Sep 18, 2:01 AM)30.17 "Hg (Sep 18, 2:01 AM)
Low50 °F (Sep 28, 5:53 AM)23% (Sep 27, 2:53 PM)29.83 "Hg (Sep 28, 2:53 PM)
Average75 °F66%30.04 "Hg
* Reported Sep 14 9:53 AM — Sep 29 9:53 AM, Nashville, Weather by CustomWeather, © 2016

Note: Actual official high and low records may vary slightly from our data, if they occured in-between our weather recording intervals... More about our weather records

Advertising

Nashville Weather History for the Previous 24 Hours

Scroll right to see more
 ConditionsComfort  
Time TempWeatherWind HumidityBarometerVisibility
9:53 AM
Thu, Sep 29
59 °FBroken clouds.7 mph69%30.09 "Hg10 mi
8:53 AM56 °FScattered clouds.8 mph77%30.07 "Hg10 mi
7:53 AM54 °FScattered clouds.7 mph77%30.07 "Hg10 mi
6:53 AM51 °FPassing clouds.3 mph83%30.06 "Hg10 mi
5:53 AM50 °FSunny.5 mph86%30.03 "Hg10 mi
4:53 AM52 °FClear.5 mph80%30.04 "Hg10 mi
3:53 AM53 °FClear.6 mph74%30.03 "Hg10 mi
2:53 AM53 °FClear.No wind74%30.02 "Hg10 mi
1:53 AM54 °FClear.7 mph74%30.02 "Hg10 mi
12:53 AM56 °FClear.9 mph70%30.03 "Hg10 mi
11:53 PM
Wed, Sep 28
57 °FClear.7 mph69%30.03 "Hg10 mi
10:53 PM59 °FClear.10 mph67%30.03 "Hg10 mi
9:53 PM61 °FClear.10 mph65%30.03 "Hg10 mi
8:53 PM63 °FMostly cloudy.7 mph75%30.01 "Hg10 mi
7:53 PM64 °FRain. Overcast.7 mph70%29.98 "Hg6 mi
6:53 PM66 °FPassing clouds.9 mph56%29.95 "Hg10 mi
5:53 PM70 °FPassing clouds.15 mph57%29.92 "Hg10 mi
4:53 PM78 °FPartly sunny.21 mph36%29.87 "Hg10 mi
3:53 PM80 °FPartly sunny.10 mph29%29.83 "Hg10 mi
2:53 PM83 °FScattered clouds.15 mph27%29.83 "Hg10 mi
1:53 PM83 °FScattered clouds.12 mph27%29.85 "Hg10 mi
12:53 PM81 °FPassing clouds.14 mph30%29.88 "Hg10 mi
Weather by CustomWeather, © 2016

See weather overviewHow to use our weather pages